This is the latest recevied weather packets stored in our database for station/object WA9NNN-10. If no packets are shown the sender has not sent any weather packets the latest 10 day(s).
| Time | Temp. | Humidity | Pressure | Rain* | Wind** | Luminosity | Snow |
|---|---|---|---|---|---|---|---|
| 1777939296 | 17.78° C | 78% | 997.1 hPa | 6.6 mm | - | - | - |
| 1777938996 | 17.78° C | 76% | 997 hPa | 6.6 mm | - | - | - |
| 1777938696 | 18.33° C | 73% | 997.4 hPa | 6.6 mm | - | - | - |
| 1777938397 | 18.89° C | 70% | 998.4 hPa | 5.33 mm | - | - | - |
| 1777938097 | 20° C | 68% | 998.5 hPa | 3.81 mm | - | - | - |
| 1777937796 | 20.56° C | 67% | 998.9 hPa | 3.3 mm | - | - | - |
| 1777937497 | 21.11° C | 64% | 998.4 hPa | 1.27 mm | - | - | - |
| 1777937196 | 22.22° C | 62% | 998.2 hPa | 1.27 mm | - | - | - |
| 1777936897 | 23.33° C | 58% | 998.2 hPa | 1.02 mm | - | - | - |
| 1777936596 | 23.89° C | 49% | 997.8 hPa | 0 mm | - | - | - |
| 1777936296 | 23.89° C | 49% | 997.5 hPa | 0 mm | - | - | - |
| 1777935996 | 23.89° C | 49% | 997.4 hPa | 0 mm | - | - | - |
| 1777935697 | 23.89° C | 48% | 997.2 hPa | 0 mm | - | - | - |
| 1777935396 | 24.44° C | 48% | 997.3 hPa | 0 mm | - | - | - |
| 1777935097 | 24.44° C | 46% | 997.2 hPa | 0 mm | - | - | - |
| 1777934798 | 25.56° C | 44% | 997.1 hPa | 0 mm | - | - | - |
| 1777934497 | 26.11° C | 43% | 997.2 hPa | 0 mm | - | - | - |
| 1777934196 | 26.67° C | 40% | 997.2 hPa | 0 mm | - | - | - |
| 1777933896 | 26.67° C | 38% | 997 hPa | 0 mm | - | - | - |
| 1777933596 | 26.67° C | 37% | 997.1 hPa | 0 mm | - | - | - |
| 1777933297 | 27.22° C | 37% | 997.1 hPa | 0 mm | - | - | - |
| 1777932996 | 27.22° C | 37% | 997.2 hPa | 0 mm | - | - | - |
| 1777932697 | 26.67° C | 37% | 997.2 hPa | 0 mm | - | - | - |
| 1777932396 | 26.67° C | 37% | 997.4 hPa | 0 mm | - | - | - |
| 1777932098 | 27.22° C | 36% | 997.4 hPa | 0 mm | - | - | - |
* Rain latest hour (hover to see other rain measurements)
** Current wind speed in m/s (hover to see current wind gust speed)